Weather History for Memphis, TN

Change the Weather History Date:

Monday, December 3, 2012

  Actual Average Record
Temperature  
Mean Temperature 68 °F 47 °F  
Max Temperature 75 °F 55 °F 75 °F (1970)
Min Temperature 60 °F 38 °F 15 °F (1929)
Degree Days  
Heating Degree Days 0 19  
Month to date heating degree days 2 55  
Since 1 July heating degree days 559 554  
Cooling Degree Days 3 0  
Month to date cooling degree days 4 0  
Year to date cooling degree days 2617 2256  
Growing Degree Days 18 (Base 50)    
Moisture  
Dew Point 57 °F    
Average Humidity 70    
Maximum Humidity 93    
Minimum Humidity 46    
Precipitation  
Precipitation 0.00 in 0.19 in 5.42 in (1978)
Month to date precipitation 0.00 0.59  
Year to date precipitation 33.17 48.53  
Snow  
Snow 0.00 in 0.00 in T in (1895)
Month to date snowfall 0.0 0.0  
Since 1 July snowfall 0.0 T  
Snow Depth 0.00 in    
Sea Level Pressure  
Sea Level Pressure 30.11 in    
Wind  
Wind Speed 11 mph (South)    
Max Wind Speed 23 mph    
Max Gust Speed 30 mph    
Visibility 10 miles    
Events      
T = Trace of Precipitation, MM = Missing Value Source: NWS Daily Summary

Daily Weather History Graph

Daily Weather History Graph

Search for Another Location

Airport:

Trip Planner

Search our weather history database for the weather conditions in past years. The results will help you decide how hot, cold, wet, or windy it might be!

Date:

Astronomy

Dec. 03, 2012 Rise Set
Actual Time 6:51 AM CST 4:47 PM CST
Civil Twilight 6:24 AM CST 5:15 PM CST
Nautical Twilight 5:52 AM CST 5:47 PM CST
Astronomical Twilight 5:22 AM CST 6:17 PM CST
Moon 9:28 PM CST (12/3) 10:20 AM CST (12/3)
Length of Visible Light 10h 51m
Length of Day
9h 56m
Waning Gibbous, 78% of the Moon is Illuminated
Dec 3
Waning Gibbous
Dec 6
Last Quarter
Dec 13
New
Dec 19
First Quarter
Dec 28
Full

Hourly Weather History & Observations

Time (CST) Temp. Dew Point Humidity Pressure Visibility Wind Dir Wind Speed Gust Speed Precip Events Conditions
12:54 AM 63.0 °F 57.9 °F 84% 30.13 in 10.0 mi South 11.5 mph - N/A   Clear
1:54 AM 63.0 °F 57.9 °F 84% 30.14 in 10.0 mi South 11.5 mph - N/A   Scattered Clouds
2:54 AM 62.1 °F 57.0 °F 84% 30.14 in 10.0 mi South 9.2 mph - N/A   Partly Cloudy
3:54 AM 61.0 °F 57.0 °F 87% 30.13 in 10.0 mi South 10.4 mph - N/A   Clear
4:54 AM 61.0 °F 57.9 °F 90% 30.13 in 10.0 mi SSW 9.2 mph - N/A   Partly Cloudy
5:54 AM 60.1 °F 57.9 °F 93% 30.14 in 10.0 mi South 9.2 mph - N/A   Mostly Cloudy
6:54 AM 62.6 °F 60.8 °F 94% 30.16 in 10.0 mi South 9.2 mph - N/A   Overcast
7:54 AM 64.0 °F 60.1 °F 87% 30.17 in 10.0 mi South 5.8 mph - N/A   Overcast
8:21 AM 64.4 °F 59.0 °F 83% 30.17 in 10.0 mi South 10.4 mph - N/A   Mostly Cloudy
8:54 AM 64.9 °F 59.0 °F 81% 30.17 in 10.0 mi South 12.7 mph - N/A   Mostly Cloudy
9:54 AM 66.9 °F 59.0 °F 76% 30.17 in 10.0 mi South 11.5 mph - N/A   Overcast
10:54 AM 71.1 °F 57.9 °F 63% 30.16 in 10.0 mi SSW 12.7 mph 19.6 mph N/A   Overcast
11:54 AM 73.0 °F 55.9 °F 55% 30.12 in 10.0 mi South 12.7 mph 25.3 mph N/A   Mostly Cloudy
12:54 PM 73.9 °F 54.0 °F 50% 30.10 in 10.0 mi South 18.4 mph 25.3 mph N/A   Mostly Cloudy
1:54 PM 73.9 °F 52.0 °F 46% 30.08 in 10.0 mi SSW 17.3 mph 29.9 mph N/A   Mostly Cloudy
2:54 PM 73.9 °F 53.1 °F 48% 30.07 in 10.0 mi South 17.3 mph 20.7 mph N/A   Mostly Cloudy
3:54 PM 73.9 °F 54.0 °F 50% 30.06 in 10.0 mi South 13.8 mph - N/A   Mostly Cloudy
4:54 PM 71.1 °F 54.0 °F 55% 30.06 in 10.0 mi South 11.5 mph - N/A   Mostly Cloudy
5:54 PM 70.0 °F 54.0 °F 57% 30.07 in 10.0 mi SSE 6.9 mph - N/A   Mostly Cloudy
6:54 PM 70.0 °F 54.0 °F 57% 30.08 in 10.0 mi SSE 9.2 mph - N/A   Mostly Cloudy
7:54 PM 69.1 °F 55.0 °F 61% 30.07 in 10.0 mi SSE 11.5 mph - N/A   Scattered Clouds
8:54 PM 68.0 °F 57.0 °F 68% 30.07 in 10.0 mi South 11.5 mph - N/A   Scattered Clouds
9:54 PM 68.0 °F 57.0 °F 68% 30.08 in 10.0 mi South 9.2 mph - N/A   Mostly Cloudy
10:54 PM 66.9 °F 57.0 °F 70% 30.07 in 10.0 mi South 9.2 mph - N/A   Mostly Cloudy
11:54 PM 66.9 °F 57.9 °F 73% 30.08 in 10.0 mi SSW 12.7 mph 18.4 mph N/A   Mostly Cloudy